Location: Borger
(52.9222°N, 6.7926°E)
Time: 11:28:52
(UTC+00:00)

ALOS 2 - Pass Details

Date: 15 May 2026
Orbit: 630 x 632 km, 97.9° (Epoch: 8 June)

Event Time Altitude Azimuth Distance (km) Brightness Sun altitude
Exits shadow 22:53:58 36° 172° (S) 1,004 3.1 -17.6°
Maximum altitude 22:55:43 81° 254° (WSW) 647 2.6 -17.7°
Drops below altitude 10° 23:00:09 10° 344° (NNW) 2,027 6.5 -17.8°
Sets 23:02:22 0° 345° (NNW) 2,939 7.7 -17.8°
